• In Belgium
  • List of Countries
  • For 7 days
  • Water Temperature
  • Satellite Maps
  • Weather Map
  • Weather Widgets
  • user-avatar
    Login

    Hourly Weather Canberra

    Today, 20 June, Wednesday

    Time Temperature Precipitation Wind Pressure Humidity
    00:00 +6°C° 0 mm 1 mps 716 mmHg 93%
    01:00 +5°C° 0 mm 2 mps 716 mmHg 93%
    02:00 +5°C° 0 mm 2 mps 716 mmHg 93%
    03:00 +5°C° 0 mm 2 mps 716 mmHg 94%
    04:00 +5°C° 0 mm 2 mps 716 mmHg 94%
    05:00 +4°C° 0 mm 2 mps 716 mmHg 95%
    06:00 +4°C° 0 mm 2 mps 716 mmHg 95%
    07:00 +4°C° 0 mm 2 mps 716 mmHg 96%
    08:00 +6°C° 0 mm 2 mps 717 mmHg 90%
    09:00 +7°C° 0 mm 2 mps 717 mmHg 84%
    10:00 +9°C° 0 mm 2 mps 717 mmHg 77%
    11:00 +10°C° 0 mm 2 mps 717 mmHg 72%
    12:00 +12°C° 0 mm 2 mps 717 mmHg 67%
    13:00 +13°C° 0 mm 1 mps 717 mmHg 62%
    14:00 +12°C° 0 mm 1 mps 717 mmHg 63%
    15:00 +12°C° 0 mm 1 mps 716 mmHg 64%
    16:00 +12°C° 0 mm 1 mps 716 mmHg 64%
    17:00 +10°C° 0 mm 1 mps 716 mmHg 73%
    18:00 +7°C° 0 mm 0 mps 716 mmHg 83%
    19:00 +5°C° 0 mm 0 mps 716 mmHg 92%
    20:00 +5°C° 0 mm 0 mps 716 mmHg 92%
    21:00 +5°C° 0 mm 0 mps 716 mmHg 93%
    22:00 +5°C° 0 mm 1 mps 717 mmHg 93%
    23:00 +5°C° 0 mm 1 mps 716 mmHg 93%

    Tomorrow, 21 June, Thursday

    Time Temperature Precipitation Wind Pressure Humidity
    00:00 +5°C° 0 mm 1 mps 716 mmHg 94%
    01:00 +5°C° 0 mm 1 mps 716 mmHg 94%
    02:00 +5°C° 0 mm 1 mps 716 mmHg 93%
    03:00 +5°C° 0 mm 1 mps 716 mmHg 93%
    04:00 +5°C° 0 mm 1 mps 716 mmHg 92%
    05:00 +5°C° 0 mm 1 mps 716 mmHg 91%
    06:00 +4°C° 0 mm 1 mps 716 mmHg 90%
    07:00 +4°C° 0 mm 1 mps 717 mmHg 89%
    08:00 +5°C° 0 mm 0 mps 717 mmHg 79%
    09:00 +8°C° 0 mm 0 mps 717 mmHg 70%
    10:00 +10°C° 0 mm 0 mps 718 mmHg 61%
    11:00 +11°C° 0 mm 0 mps 717 mmHg 54%
    12:00 +13°C° 0 mm 1 mps 717 mmHg 48%
    13:00 +15°C° 0 mm 1 mps 716 mmHg 41%
    14:00 +14°C° 0 mm 1 mps 716 mmHg 45%
    15:00 +13°C° 0 mm 1 mps 716 mmHg 48%
    16:00 +12°C° 0 mm 1 mps 716 mmHg 52%
    17:00 +10°C° 0 mm 1 mps 716 mmHg 61%
    18:00 +8°C° 0 mm 1 mps 716 mmHg 71%
    19:00 +6°C° 0 mm 1 mps 716 mmHg 80%
    20:00 +5°C° 0 mm 1 mps 716 mmHg 81%
    21:00 +4°C° 0 mm 0 mps 717 mmHg 82%
    22:00 +3°C° 0 mm 0 mps 717 mmHg 83%
    23:00 +3°C° 0 mm 0 mps 717 mmHg 83%

    Day after tomorrow, 22 June, Friday

    Time Temperature Precipitation Wind Pressure Humidity
    00:00 +3°C° 0 mm 0 mps 717 mmHg 83%
    01:00 +3°C° 0 mm 0 mps 716 mmHg 83%
    02:00 +3°C° 0 mm 0 mps 716 mmHg 83%
    03:00 +2°C° 0 mm 0 mps 716 mmHg 83%
    04:00 +3°C° 0 mm 1 mps 716 mmHg 82%
    05:00 +3°C° 0 mm 1 mps 716 mmHg 82%
    06:00 +3°C° 0 mm 1 mps 716 mmHg 82%
    07:00 +3°C° 0 mm 1 mps 716 mmHg 82%
    08:00 +5°C° 0 mm 1 mps 717 mmHg 72%
    09:00 +8°C° 0 mm 1 mps 717 mmHg 62%
    10:00 +11°C° 0 mm 1 mps 717 mmHg 52%
    11:00 +12°C° 0 mm 1 mps 717 mmHg 48%
    12:00 +13°C° 0 mm 2 mps 716 mmHg 43%
    13:00 +15°C° 0 mm 2 mps 716 mmHg 39%
    14:00 +14°C° 0 mm 2 mps 715 mmHg 43%
    15:00 +13°C° 0 mm 2 mps 715 mmHg 47%
    16:00 +13°C° 0 mm 2 mps 715 mmHg 50%
    17:00 +9°C° 0 mm 2 mps 715 mmHg 61%
    18:00 +7°C° 0 mm 2 mps 715 mmHg 71%
    19:00 +5°C° 0 mm 2 mps 715 mmHg 82%
    20:00 +5°C° 0 mm 1 mps 715 mmHg 83%
    21:00 +5°C° 0 mm 1 mps 715 mmHg 84%
    22:00 +4°C° 0 mm 1 mps 715 mmHg 86%
    23:00 +4°C° 0 mm 1 mps 715 mmHg 86%

    23 June, Saturday

    Time Temperature Precipitation Wind Pressure Humidity
    00:00 +4°C° 0 mm 1 mps 715 mmHg 86%
    01:00 +3°C° 0 mm 1 mps 714 mmHg 87%
    02:00 +3°C° 0 mm 1 mps 714 mmHg 87%
    03:00 +2°C° 0 mm 2 mps 714 mmHg 87%
    04:00 +2°C° 0 mm 2 mps 714 mmHg 87%
    05:00 +2°C° 0 mm 2 mps 714 mmHg 87%
    06:00 +2°C° 0 mm 2 mps 714 mmHg 87%
    07:00 +2°C° 0 mm 2 mps 714 mmHg 87%
    08:00 +4°C° 0 mm 2 mps 715 mmHg 77%
    09:00 +5°C° 0 mm 3 mps 715 mmHg 67%
    10:00 +9°C° 0 mm 3 mps 715 mmHg 57%
    11:00 +10°C° 0 mm 3 mps 715 mmHg 52%
    12:00 +11°C° 0 mm 3 mps 715 mmHg 47%
    13:00 +13°C° 0 mm 3 mps 714 mmHg 42%
    14:00 +12°C° 0 mm 3 mps 714 mmHg 45%
    15:00 +11°C° 0 mm 3 mps 714 mmHg 49%
    16:00 +11°C° 0 mm 3 mps 714 mmHg 52%
    17:00 +9°C° 0 mm 3 mps 714 mmHg 61%
    18:00 +7°C° 0 mm 2 mps 715 mmHg 70%
    19:00 +5°C° 0 mm 2 mps 715 mmHg 78%
    20:00 +5°C° 0 mm 2 mps 715 mmHg 81%
    21:00 +4°C° 0 mm 2 mps 716 mmHg 84%
    22:00 +5°C° 0 mm 1 mps 716 mmHg 87%
    23:00 +5°C° 0 mm 1 mps 716 mmHg 89%

    24 June, Sunday

    Time Temperature Precipitation Wind Pressure Humidity
    00:00 +4°C° 0 mm 1 mps 716 mmHg 90%
    01:00 +4°C° 0 mm 1 mps 716 mmHg 91%
    02:00 +4°C° 0 mm 1 mps 716 mmHg 92%
    03:00 +3°C° 0 mm 1 mps 716 mmHg 92%
    04:00 +3°C° 0 mm 1 mps 716 mmHg 92%
    05:00 +3°C° 0 mm 1 mps 717 mmHg 91%
    06:00 +2°C° 0 mm 1 mps 717 mmHg 89%
    07:00 +2°C° 0 mm 1 mps 717 mmHg 87%
    08:00 +4°C° 0 mm 1 mps 718 mmHg 76%
    09:00 +7°C° 0 mm 1 mps 718 mmHg 64%
    10:00 +9°C° 0 mm 1 mps 719 mmHg 52%
    11:00 +11°C° 0 mm 1 mps 718 mmHg 47%
    12:00 +12°C° 0 mm 1 mps 718 mmHg 42%
    13:00 +13°C° 0 mm 0 mps 718 mmHg 38%
    14:00 +13°C° 0 mm 1 mps 717 mmHg 41%
    15:00 +12°C° 0 mm 1 mps 717 mmHg 45%
    16:00 +12°C° 0 mm 1 mps 717 mmHg 48%
    17:00 +9°C° 0 mm 1 mps 717 mmHg 59%
    18:00 +7°C° 0 mm 1 mps 717 mmHg 69%
    19:00 +5°C° 0 mm 1 mps 717 mmHg 80%
    20:00 +4°C° 0 mm 1 mps 718 mmHg 80%
    21:00 +4°C° 0 mm 1 mps 718 mmHg 81%
    22:00 +3°C° 0 mm 1 mps 718 mmHg 82%
    23:00 +3°C° 0 mm 1 mps 718 mmHg 81%

    25 June, Monday

    Time Temperature Precipitation Wind Pressure Humidity
    00:00 +2°C° 0 mm 1 mps 718 mmHg 81%
    01:00 +2°C° 0 mm 1 mps 718 mmHg 81%
    02:00 +2°C° 0 mm 1 mps 718 mmHg 80%
    03:00 +2°C° 0 mm 1 mps 718 mmHg 80%
    04:00 +2°C° 0 mm 1 mps 718 mmHg 79%
    05:00 +1°C° 0 mm 1 mps 718 mmHg 78%
    06:00 +1°C° 0 mm 1 mps 718 mmHg 77%
    07:00 +1°C° 0 mm 1 mps 719 mmHg 76%
    08:00 +4°C° 0 mm 1 mps 719 mmHg 66%
    09:00 +6°C° 0 mm 0 mps 720 mmHg 56%
    10:00 +9°C° 0 mm 0 mps 720 mmHg 46%
    11:00 +10°C° 0 mm 0 mps 720 mmHg 42%
    12:00 +13°C° 0 mm 1 mps 719 mmHg 38%
    13:00 +14°C° 0 mm 1 mps 719 mmHg 34%
    14:00 +13°C° 0 mm 1 mps 718 mmHg 38%
    15:00 +12°C° 0 mm 1 mps 718 mmHg 41%
    16:00 +12°C° 0 mm 1 mps 718 mmHg 45%
    17:00 +9°C° 0 mm 1 mps 718 mmHg 54%
    18:00 +7°C° 0 mm 1 mps 718 mmHg 63%
    19:00 +3°C° 0 mm 0 mps 719 mmHg 72%
    20:00 +4°C° 0 mm 1 mps 719 mmHg 73%
    21:00 +4°C° 0 mm 1 mps 719 mmHg 74%
    22:00 +3°C° 0 mm 1 mps 719 mmHg 75%
    23:00 +3°C° 0 mm 1 mps 719 mmHg 76%
    Show more